Tracking 19242 objects as of 17-Aug-2018
HD Live streaming from Space Station
objects crossing your sky now

COSMOS 1300

Track COSMOS 1300 now!
10-day predictions
COSMOS 1300 is classified as:


NORAD ID: 12785
Int'l Code: 1981-082A
Perigee: 520.3 km
Apogee: 522.5 km
Inclination: 82.5 °
Period: 94.9 minutes
Semi major axis: 6892 km
RCS: 5.912 m2 (large)
Launch date: August 24, 1981
Source: Commonwealth of Independent States (former USSR) (CIS)
Launch site: PLESETSK MISSILE AND SPACE COMPLEX (PKMTR)
aabbcc
Your satellite tracking list
Your tracking list is empty




NASA's NSSDC Master Catalog

Two Line Element Set (TLE):
1 12785U 81082A   18228.93977737 +.00000193 +00000-0 +80753-5 0  9996
2 12785 082.5044 012.2210 0001557 135.6146 345.4060 15.17211468016162
Source of the keplerian elements: AFSPC